CZ-4C R/B, 55838

Orbit data source: Space-Track

CZ-4C R/B, 55838 is space debris in SSO originally from a launch on Thu, 09 Mar 2023 UTC launched from the Taiyaun Space Center, China (TSC). Debris objects in space refer to the collection of defunct objects orbiting the Earth. Examples of debris include non-operational satellites, rocket bodies, and fragments generated from explosions, collisions, or faulty payload assembly.

Loading next visibility...
Identifier
55838, 2023-030C
Orbit
SSO
Country
Flag of CNCN / PRC
Related business
Manufacturer
SAST
Mission
Spacecraft
Bus & Motor
CZ-4 STAGE 3, Unknown motor
Mass
~1,000 kg wet, ~1,000 kg dry
Launch date (UTC)
2023-03-09 (3 years ago)
Launch vehicle
Unknown
Launch site
Taiyaun Space Center, China (TSC)
Object type
Payload
Rocket body
Debris
Shape & HBR
Cyl, 2.5 m
Radar Cross Section
14.536 m², Large (>1 m²)

Expand to show TLE details & history
Last TLE update: 2 days ago

TLE from 2 days ago
0 CZ-4C R/B
1 55838U 23030C   26171.10977059  .00000031  00000-0  33296-4 0  9993
2 55838  98.9010 214.7608 0086515 208.0026 151.6482 14.21897461170232
Epoch: 2026-06-20T02:38Z
TLE epoch observation values (Epoch: 2026-06-20T02:38:04.178Z)
Latitude
-0.00007°
Longitude
-93.0857°
Altitude
876.781 km
Speed
7.386 km/s
True Right ascension
14h 19m 02s
True Declination
0° 00' 00"
Sunlit
Object was in full shadow at epoch
Visualization orbit readout
Latitude
Unknown
Longitude
Unknown
Altitude
Unknown
Speed
Unknown
Apparent Right ascension
Unknown
Apparent Declination
Unknown
Sunlit
N/A
Visualization observer readout
Local Sidereal Time
21:25:34
Azimuth
Unknown
Elevation
Unknown
Doppler factor
Unknown
Orbital elements
Apogee altitude
878.349 km
Perigee altitude
753.867 km
Semi-major axis
7,194.245 km
Eccentricity
0.00865
Inclination
98.901°
RAAN
214.7608°
Arg. of periapsis
208.0026°
True anomaly
152.11455°
Mean anomaly
151.6482°
Eccentric anomaly
151.88182°
Mean motion
3.55685 °/min
Orbital period
101.21 mins
BSTAR
0.000033296
Loading maneuver chart data...
Computing Atmospheric mass density...
Loading historical data...
Loading historical data...
Loading historical data...
Loading historical data...
Loading historical data...
Loading historical data...
Loading historical data...
Other satellites on launch #30 in the year 2023 (2023-03-09 UTC)

Documentation

Showing up to 5 results
|